Flag for U.S.A. Weather past 2 weeks in Costa Mesa, California, U.S.A.

Now
67 °F

Overcast.


Feels Like: 67 °F
Forecast: 53 / 68 °F
Wind: No wind

Location: John Wayne Airport-Orange County Airport

Current Time: Dec 21, 2014 at 12:58:21 PM

Latest Report: Dec 21, 2014 at 11:53 AM


Visibility: 10 mi

Pressure: 30.11 "Hg

Humidity: 59%

Dew point: 52 °F

Location of Costa MesaLocation

Historic Weather in Costa Mesa — Graph

°F

Costa Mesa temperature yesterday

Maximum temperature yesterday: 65 °F (at 1:53 PM)
Minimum temperature yesterday: 53 °F (at 3:53 AM)
Average temperature yesterday: 60 °F

Past Weeks' High & Low Weather Summary

 TemperatureHumidityPressure
High78 °F (Dec 8, 12:53 PM)88% (Dec 12, 6:00 AM)30.24 "Hg (Dec 12, 6:00 AM)
Low50 °F (Dec 14, 5:53 AM)39% (Dec 7, 2:53 PM)29.85 "Hg (Dec 12, 3:53 AM)
Average62 °F67%30.06 "Hg
* Reported Dec 6 11:53 AM — Dec 21 11:53 AM, Costa Mesa, Weather by CustomWeather, © 2014

Note: Actual official high and low records may vary slightly from our data, if they occured in-between our weather recording intervals... More about our weather records

Advertising

Costa Mesa weather history for previous 24 hours

 ConditionsComfort  
Time TempWeatherWind HumidityBarometerVisibility
11:53 AM
Dec 21
67 °FOvercast.No wind59%30.11 "Hg10 mi
10:53 AM66 °FMore clouds than sun.5 mph63%30.14 "Hg10 mi
9:53 AM65 °FSunny.No wind66%30.15 "Hg10 mi
8:53 AM61 °FOvercast.No wind70%30.15 "Hg10 mi
8:00 AM57 °FPassing clouds.No wind72%30.14 "Hg9 mi
6:53 AM54 °FPartly sunny.No wind80%30.13 "Hg8 mi
5:53 AM55 °FPassing clouds.No wind77%30.12 "Hg9 mi
4:53 AM57 °FClear.No wind74%30.11 "Hg10 mi
3:53 AM57 °FPassing clouds.3 mph74%30.10 "Hg10 mi
2:53 AM58 °FOvercast.3 mph75%30.12 "Hg10 mi
1:53 AM59 °FMostly cloudy.3 mph75%30.13 "Hg10 mi
12:53 AM58 °FPassing clouds.3 mph78%30.14 "Hg10 mi
11:53 PM
Dec 20
58 °FClear.No wind78%30.15 "Hg10 mi
10:53 PM61 °FPartly cloudy.3 mph75%30.15 "Hg10 mi
9:53 PM63 °FPassing clouds.No wind73%30.14 "Hg10 mi
8:53 PM62 °FPassing clouds.3 mph75%30.14 "Hg10 mi
7:53 PM63 °FPassing clouds.5 mph73%30.14 "Hg10 mi
6:53 PM64 °FOvercast.No wind70%30.14 "Hg10 mi
5:53 PM64 °FOvercast.No wind68%30.14 "Hg10 mi
4:53 PM63 °FMostly cloudy.5 mph73%30.13 "Hg9 mi
3:53 PM63 °FBroken clouds.7 mph70%30.12 "Hg10 mi
2:53 PM64 °FMore clouds than sun.7 mph65%30.11 "Hg10 mi
1:53 PM65 °FBroken clouds.6 mph61%30.12 "Hg10 mi
12:53 PM64 °FOvercast.3 mph63%30.15 "Hg10 mi
Weather by CustomWeather, © 2014

See weather overviewHow to use our weather pages